Mojave, CA

3:22 PM PST on December 06, 2019 (GMT -0800)
Mojave

Weather History for KMHV - October, 2019

Change the Weather History Date:

Tuesday, October 29, 2019

  Actual Average Record
Temperature  
Mean Temperature 57 °F -  
Max Temperature 68 °F 70 °F 86 °F (2008)
Min Temperature 46 °F 43 °F 25 °F (1971)
Degree Days  
Heating Degree Days 8    
Growing Degree Days 7 (Base 50)    
Moisture  
Dew Point 13 °F    
Average Humidity 18    
Maximum Humidity 33    
Minimum Humidity 9    
Precipitation  
Precipitation 0.00 in - - ()
Sea Level Pressure  
Sea Level Pressure 29.91 in    
Wind  
Wind Speed 17 mph ()    
Max Wind Speed 31 mph    
Max Gust Speed 44 mph    
Visibility 9.9 miles    
Events      
Averages and records for this station are not official NWS values.
T = Trace of Precipitation, MM = Missing Value Source: Averaged Metar Reports

Daily Weather History Graph

Daily Weather History Graph

Search for Another Location

Airport or City:

Astronomy

Oct. 29, 2019 Rise Set
Actual Time 7:10 AM PDT 6:01 PM PDT
Civil Twilight 6:44 AM PDT 6:27 PM PDT
Nautical Twilight 6:14 AM PDT 6:57 PM PDT
Astronomical Twilight 5:45 AM PDT 7:26 PM PDT
Moon 8:47 AM PDT (10/29) 7:32 PM PDT (10/29)
Length of Visible Light 11h 42m
Length of Day
10h 50m
Waxing Crescent, 4% of the Moon is Illuminated
Oct 29
Waxing Crescent
Nov 4
First Quarter
Nov 12
Full
Nov 19
Last Quarter
Nov 26
New

Hourly Weather History & Observations

Time (PDT) Temp. Windchill Dew Point Humidity Pressure Visibility Wind Dir Wind Speed Gust Speed Precip Events Conditions
12:00 AM 53.6 °F - 15.8 °F 22% 29.92 in 10.0 mi West 28.8 mph - N/A   Partly Cloudy
12:20 AM 53.6 °F - 15.8 °F 22% 29.92 in 10.0 mi West 26.5 mph 32.2 mph N/A   Scattered Clouds
12:40 AM 53.6 °F - 15.8 °F 22% 29.91 in 10.0 mi West 26.5 mph 35.7 mph N/A   Partly Cloudy
1:00 AM 53.6 °F - 14.0 °F 21% 29.90 in 10.0 mi WSW 25.3 mph 34.5 mph N/A   Clear
1:20 AM 55.4 °F - 12.2 °F 18% 29.91 in 10.0 mi West 24.2 mph - N/A   Clear
1:40 AM 53.6 °F - 14.0 °F 21% 29.91 in 10.0 mi West 24.2 mph - N/A   Partly Cloudy
2:00 AM 53.6 °F - 14.0 °F 21% 29.91 in 10.0 mi West 25.3 mph - N/A   Clear
2:20 AM 55.4 °F - 14.0 °F 20% 29.90 in 10.0 mi West 23.0 mph 28.8 mph N/A   Partly Cloudy
2:40 AM 55.4 °F - 14.0 °F 20% 29.90 in 10.0 mi West 18.4 mph 29.9 mph N/A   Scattered Clouds
3:00 AM 55.4 °F - 15.8 °F 21% 29.90 in 10.0 mi West 11.5 mph 24.2 mph N/A   Scattered Clouds
3:20 AM 55.4 °F - 15.8 °F 21% 29.89 in 10.0 mi West 10.4 mph 32.2 mph N/A   Scattered Clouds
3:40 AM 55.4 °F - 15.8 °F 21% 29.88 in 10.0 mi WSW 12.7 mph 23.0 mph N/A   Scattered Clouds
4:00 AM 53.6 °F - 15.8 °F 22% 29.87 in 10.0 mi SW 13.8 mph 20.7 mph N/A   Mostly Cloudy
4:20 AM 53.6 °F - 15.8 °F 22% 29.86 in 10.0 mi WSW 16.1 mph 23.0 mph N/A   Scattered Clouds
4:40 AM 55.4 °F - 14.0 °F 20% 29.85 in 10.0 mi West 15.0 mph 21.9 mph N/A   Scattered Clouds
5:00 AM 55.4 °F - 14.0 °F 20% 29.86 in 10.0 mi West 13.8 mph 31.1 mph N/A   Partly Cloudy
5:20 AM 53.6 °F - 15.8 °F 22% 29.86 in 10.0 mi NW 13.8 mph 25.3 mph N/A   Partly Cloudy
5:40 AM 51.8 °F - 17.6 °F 26% 29.86 in 10.0 mi West 12.7 mph 25.3 mph N/A   Scattered Clouds
6:00 AM 53.6 °F - 17.6 °F 24% 29.86 in 10.0 mi Variable 6.9 mph - N/A   Mostly Cloudy
6:20 AM 51.8 °F - 17.6 °F 26% 29.86 in 10.0 mi Variable 5.8 mph - N/A   Scattered Clouds
6:40 AM 51.8 °F - 19.4 °F 28% 29.86 in 10.0 mi Variable 3.5 mph 15.0 mph N/A   Clear
7:00 AM 51.8 °F - 19.4 °F 28% 29.84 in 10.0 mi WNW 25.3 mph 32.2 mph N/A   Clear
7:20 AM 51.8 °F - 19.4 °F 28% 29.85 in 10.0 mi WNW 16.1 mph 31.1 mph N/A   Clear
7:40 AM 51.8 °F - 21.2 °F 30% 29.83 in 9.0 mi WNW 27.6 mph 39.1 mph N/A   Clear
8:00 AM 51.8 °F - 23.0 °F 33% 29.84 in 8.0 mi WNW 25.3 mph 39.1 mph N/A   Clear
8:20 AM 53.6 °F - 21.2 °F 28% 29.83 in 9.0 mi West 31.1 mph 43.7 mph N/A   Clear
8:40 AM 55.4 °F - 21.2 °F 26% 29.86 in 10.0 mi West 28.8 mph 41.4 mph N/A   Clear
9:00 AM 57.2 °F - 19.4 °F 23% 29.86 in 10.0 mi West 26.5 mph 35.7 mph N/A   Clear
9:40 AM 60.8 °F - 15.8 °F 17% 29.87 in 10.0 mi WSW 19.6 mph - N/A   Clear
10:00 AM 60.8 °F - 17.6 °F 19% 29.88 in 10.0 mi WSW 17.3 mph 26.5 mph N/A   Clear
10:40 AM 64.4 °F - 15.8 °F 15% 29.87 in 10.0 mi West 20.7 mph 26.5 mph N/A   Clear
11:20 AM 66.2 °F - 15.8 °F 14% 29.88 in 10.0 mi West 18.4 mph - N/A   Clear
11:40 AM 66.2 °F - 15.8 °F 14% 29.88 in 10.0 mi WNW 18.4 mph 25.3 mph N/A   Clear
12:00 PM 66.2 °F - 15.8 °F 14% 29.88 in 10.0 mi West 18.4 mph - N/A   Clear
12:20 PM 68.0 °F - 15.8 °F 13% 29.87 in 10.0 mi WNW 20.7 mph - N/A   Clear
12:40 PM 68.0 °F - 12.2 °F 12% 29.86 in 10.0 mi West 20.7 mph 27.6 mph N/A   Clear
1:00 PM 68.0 °F - 10.4 °F 11% 29.85 in 10.0 mi West 26.5 mph - N/A   Clear
1:20 PM 68.0 °F - 8.6 °F 10% 29.84 in 10.0 mi West 23.0 mph 32.2 mph N/A   Clear
1:40 PM 68.0 °F - 10.4 °F 11% 29.84 in 10.0 mi West 25.3 mph 33.4 mph N/A   Clear
2:00 PM 68.0 °F - 6.8 °F 9% 29.84 in 10.0 mi West 24.2 mph 32.2 mph N/A   Clear
2:20 PM 68.0 °F - 6.8 °F 9% 29.83 in 10.0 mi West 24.2 mph 32.2 mph N/A   Clear
2:40 PM 68.0 °F - 6.8 °F 9% 29.83 in 10.0 mi West 26.5 mph 34.5 mph N/A   Clear
3:20 PM 68.0 °F - 8.6 °F 10% 29.85 in 10.0 mi West 23.0 mph 29.9 mph N/A   Clear
3:40 PM 66.2 °F - 10.4 °F 11% 29.86 in 10.0 mi West 19.6 mph 28.8 mph N/A   Clear
4:00 PM 66.2 °F - 12.2 °F 12% 29.87 in 10.0 mi West 19.6 mph - N/A   Clear
4:20 PM 64.4 °F - 12.2 °F 13% 29.88 in 10.0 mi WSW 17.3 mph 24.2 mph N/A   Clear
4:40 PM 64.4 °F - 14.0 °F 14% 29.89 in 10.0 mi West 15.0 mph - N/A   Clear
5:00 PM 64.4 °F - 14.0 °F 14% 29.89 in 10.0 mi West 17.3 mph - N/A   Clear
5:20 PM 62.6 °F - 15.8 °F 16% 29.90 in 10.0 mi WNW 9.2 mph 16.1 mph N/A   Clear
5:40 PM 62.6 °F - 15.8 °F 16% 29.91 in 10.0 mi NW 8.1 mph - N/A   Clear
6:00 PM 60.8 °F - 12.2 °F 15% 29.92 in 10.0 mi North 5.8 mph - N/A   Clear
6:20 PM 59.0 °F - 14.0 °F 17% 29.93 in 10.0 mi NNW 5.8 mph - N/A   Clear
6:40 PM 57.2 °F - 14.0 °F 18% 29.94 in 10.0 mi NNW 6.9 mph - N/A   Scattered Clouds
7:00 PM 55.4 °F - 12.2 °F 18% 29.95 in 10.0 mi North 9.2 mph - N/A   Mostly Cloudy
7:20 PM 53.6 °F - 12.2 °F 19% 29.96 in 10.0 mi NNW 9.2 mph - N/A   Overcast
7:40 PM 53.6 °F - 6.8 °F 15% 29.97 in 10.0 mi North 8.1 mph - N/A   Overcast
8:00 PM 51.8 °F - 5.0 °F 15% 29.98 in 10.0 mi NNE 6.9 mph - N/A   Overcast
8:20 PM 51.8 °F - 5.0 °F 15% 29.99 in 10.0 mi Calm Calm - N/A   Overcast
8:40 PM 48.2 °F - 5.0 °F 17% 30.00 in 10.0 mi NNE 3.5 mph - N/A   Overcast
9:00 PM 50.0 °F - 3.2 °F 15% 30.01 in 10.0 mi NE 5.8 mph - N/A   Overcast
9:20 PM 50.0 °F - 3.2 °F 15% 30.02 in 10.0 mi NE 5.8 mph - N/A   Overcast
9:40 PM 51.8 °F - 3.2 °F 14% 30.04 in 10.0 mi ENE 4.6 mph - N/A   Overcast
10:00 PM 51.8 °F - 3.2 °F 14% 30.05 in 10.0 mi ENE 9.2 mph - N/A   Overcast
10:20 PM 51.8 °F - 3.2 °F 14% 30.06 in 10.0 mi ENE 9.2 mph - N/A   Overcast
10:40 PM 50.0 °F - 3.2 °F 15% 30.07 in 10.0 mi ENE 8.1 mph - N/A   Overcast
11:00 PM 46.4 °F 42.4 °F 1.4 °F 16% 30.08 in 10.0 mi NE 8.1 mph - N/A   Overcast
11:20 PM 46.4 °F 41.5 °F 1.4 °F 16% 30.08 in 10.0 mi NE 10.4 mph - N/A   Overcast
11:40 PM 46.4 °F 41.9 °F -0.4 °F 14% 30.09 in 10.0 mi NE 9.2 mph - N/A   Overcast